Weather History for Fort Myers, FL

Change the Weather History Date:

Tuesday, April 16, 2013

  Actual Average Record
Temperature  
Mean Temperature 82 °F 74 °F  
Max Temperature 94 °F 85 °F 94 °F (2013)
Min Temperature 70 °F 63 °F 44 °F (1950)
Degree Days  
Heating Degree Days 0 0  
Month to date heating degree days 0 0  
Since 1 July heating degree days 201 284  
Cooling Degree Days 17 9  
Month to date cooling degree days 183 128  
Year to date cooling degree days 565 489  
Growing Degree Days 31 (Base 50)    
Moisture  
Dew Point 69 °F    
Average Humidity 75    
Maximum Humidity 97    
Minimum Humidity 39    
Precipitation  
Precipitation 0.00 in 0.08 in 2.64 in (1933)
Month to date precipitation 1.44 1.21  
Year to date precipitation 4.70 8.18  
Sea Level Pressure  
Sea Level Pressure 30.07 in    
Wind  
Wind Speed 7 mph (East)    
Max Wind Speed 20 mph    
Max Gust Speed 25 mph    
Visibility 9 miles    
Events      
T = Trace of Precipitation, MM = Missing Value Source: NWS Daily Summary

Daily Weather History Graph

Daily Weather History Graph

Search for Another Location

Airport:

Trip Planner

Search our weather history database for the weather conditions in past years. The results will help you decide how hot, cold, wet, or windy it might be!

Date:

Astronomy

Apr. 16, 2013 Rise Set
Actual Time 7:02 AM EDT 7:52 PM EDT
Civil Twilight 6:38 AM EDT 8:15 PM EDT
Nautical Twilight 6:10 AM EDT 8:43 PM EDT
Astronomical Twilight 5:42 AM EDT 9:12 PM EDT
Moon 11:34 AM EDT (4/16) 12:33 AM EDT (4/16)
Length of Visible Light 13h 37m
Length of Day
12h 49m
Waxing Crescent, 33% of the Moon is Illuminated
Apr 16
Waxing Crescent
Apr 18
First Quarter
Apr 25
Full
May 2
Last Quarter
May 9
New

Hourly Weather History & Observations

Time (EDT) Temp. Heat Index Dew Point Humidity Pressure Visibility Wind Dir Wind Speed Gust Speed Precip Events Conditions
12:53 AM 73.9 °F - 69.1 °F 85% 30.05 in 10.0 mi Calm Calm - N/A   Clear
1:53 AM 73.0 °F - 69.1 °F 87% 30.04 in 10.0 mi Calm Calm - N/A   Clear
2:53 AM 73.0 °F - 69.1 °F 87% 30.03 in 10.0 mi Calm Calm - N/A   Clear
3:53 AM 71.1 °F - 69.1 °F 93% 30.02 in 10.0 mi Calm Calm - N/A   Clear
4:45 AM 71.6 °F - 69.8 °F 94% 30.03 in 8.0 mi East 3.5 mph - N/A   Scattered Clouds
4:53 AM 71.1 °F - 69.1 °F 93% 30.04 in 8.0 mi East 3.5 mph - N/A   Mostly Cloudy
5:15 AM 69.8 °F - 69.8 °F 100% 30.03 in 9.0 mi East 3.5 mph - N/A   Scattered Clouds
5:39 AM 71.6 °F - 69.8 °F 94% 30.04 in 9.0 mi East 4.6 mph - N/A   Mostly Cloudy
5:53 AM 71.1 °F - 69.1 °F 93% 30.05 in 8.0 mi East 6.9 mph - N/A   Overcast
6:46 AM 69.8 °F - 68.0 °F 94% 30.06 in 9.0 mi ENE 3.5 mph - N/A   Scattered Clouds
6:53 AM 70.0 °F - 68.0 °F 93% 30.07 in 9.0 mi NE 3.5 mph - N/A   Partly Cloudy
8:11 AM 71.6 °F - 69.8 °F 94% 30.09 in 5.0 mi East 5.8 mph - N/A   Mostly Cloudy
8:22 AM 71.6 °F - 69.8 °F 94% 30.10 in 5.0 mi East 5.8 mph - N/A   Overcast
8:53 AM 73.0 °F - 70.0 °F 90% 30.11 in 6.0 mi East 6.9 mph - N/A   Overcast
9:24 AM 75.2 °F - 71.6 °F 89% 30.10 in 8.0 mi ESE 6.9 mph - N/A   Scattered Clouds
9:53 AM 80.1 °F 83.6 °F 71.1 °F 74% 30.11 in 10.0 mi East 5.8 mph - N/A   Scattered Clouds
10:53 AM 84.0 °F 87.8 °F 69.1 °F 61% 30.11 in 10.0 mi East 9.2 mph - N/A   Clear
11:53 AM 84.9 °F 88.2 °F 68.0 °F 57% 30.11 in 10.0 mi ESE 6.9 mph - N/A   Clear
12:53 PM 88.0 °F 90.7 °F 66.9 °F 49% 30.10 in 10.0 mi ENE 5.8 mph - N/A   Partly Cloudy
1:53 PM 89.1 °F 92.1 °F 66.9 °F 48% 30.08 in 10.0 mi East 6.9 mph - N/A   Partly Cloudy
2:53 PM 91.0 °F 95.2 °F 68.0 °F 47% 30.06 in 10.0 mi Variable 4.6 mph - N/A   Scattered Clouds
3:53 PM 91.0 °F 93.0 °F 64.9 °F 42% 30.04 in 10.0 mi Variable 4.6 mph - N/A   Partly Cloudy
4:53 PM 93.0 °F 94.6 °F 64.0 °F 38% 30.02 in 10.0 mi Variable 6.9 mph - N/A   Partly Cloudy
5:53 PM 89.1 °F 94.1 °F 70.0 °F 53% 30.04 in 10.0 mi East 16.1 mph 23.0 mph N/A   Partly Cloudy
6:53 PM 84.9 °F 88.8 °F 69.1 °F 59% 30.05 in 10.0 mi East 15.0 mph 21.9 mph N/A   Mostly Cloudy
7:53 PM 82.0 °F 84.9 °F 68.0 °F 62% 30.08 in 10.0 mi ENE 12.7 mph 20.7 mph N/A   Clear
8:53 PM 80.1 °F 82.3 °F 66.9 °F 64% 30.10 in 10.0 mi East 9.2 mph 19.6 mph N/A   Partly Cloudy
9:53 PM 79.0 °F - 66.9 °F 66% 30.11 in 10.0 mi East 11.5 mph - N/A   Partly Cloudy
10:53 PM 78.1 °F - 66.9 °F 68% 30.13 in 10.0 mi East 11.5 mph - N/A   Overcast
11:53 PM 75.9 °F - 68.0 °F 76% 30.13 in 10.0 mi East 6.9 mph - N/A   Overcast